GEFSSGP_850_meantemp_012.txt.gz
Temperature
24 24 23 22 21 21 23 23 22 23 23 24 24 24 23 21 21 21 21 22 21 21 20 20 20 20 20 20 20 20 20 20 20 19 19 19 19 19 19 19 19 19 19 19 19 19 19 19 19
24 24 23 22 21 23 24 24 23 24 24 24 24 23 21 20 21 21 21 21 21 21 20 20 20 20 20 20 20 20 20 20 19 19 19 19 20 19 19 19 19 19 19 19 19 19 19 19 19
24 24 23 21 22 23 25 24 24 25 25 25 23 22 21 20 20 21 22 21 21 21 21 21 21 21 21 20 20 20 20 20 20 19 19 20 19 19 19 19 19 19 19 19 19 19 19 19 19
24 24 23 21 24 24 24 25 24 25 25 24 23 21 21 21 21 22 22 21 21 21 21 21 21 21 21 21 20 20 20 20 20 20 20 20 20 19 19 19 19 19 19 19 19 19 19 19 19
24 24 21 21 23 24 25 25 25 25 25 24 22 21 20 21 22 22 21 21 21 21 21 21 21 21 21 21 21 20 20 20 20 20 20 20 20 20 19 19 19 19 19 19 19 19 18 18 18
24 21 21 22 23 25 26 26 26 25 24 23 22 20 20 21 21 22 21 21 21 21 21 21 21 21 21 21 21 20 20 20 20 19 19 20 20 19 19 19 19 19 19 19 19 19 18 18 18
23 20 22 23 23 25 26 26 26 24 23 23 22 20 19 21 21 21 21 21 21 21 21 20 20 20 21 21 20 20 20 20 20 19 19 19 19 19 19 19 18 18 18 18 18 18 18 18 18
24 19 22 22 24 25 26 27 26 25 24 24 23 21 20 21 21 21 21 21 20 20 20 20 20 20 20 20 20 20 20 19 19 19 19 19 19 19 19 19 18 18 18 18 18 18 18 18 18
23 19 21 23 24 25 25 26 27 26 24 23 23 23 24 22 21 21 20 20 20 20 20 20 20 20 20 20 20 19 19 19 19 19 19 19 19 19 19 19 18 18 18 18 18 18 18 18 18
22 19 21 23 24 25 25 25 26 25 24 23 23 23 23 21 21 21 21 20 20 20 20 20 20 20 20 20 19 19 19 19 19 19 19 19 19 18 18 18 18 18 18 18 18 18 18 18 18
22 20 22 23 25 25 25 26 27 25 23 24 24 24 22 21 21 21 21 21 21 21 20 20 20 20 20 20 19 19 19 19 19 19 19 19 18 18 18 18 18 18 18 18 18 17 18 18 18
22 22 23 24 26 25 25 26 26 25 26 27 27 26 24 23 22 22 22 21 21 21 21 21 20 20 20 20 20 19 19 19 19 19 19 18 18 18 18 18 18 17 18 18 18 18 18 18 18
22 22 24 25 26 25 25 25 25 26 27 27 26 25 24 24 23 23 22 22 21 21 21 21 20 20 20 20 19 19 19 19 19 19 18 18 18 18 18 18 18 18 18 18 18 18 18 18 18
23 23 23 24 25 25 25 25 24 26 26 26 25 24 24 24 24 23 22 21 21 21 21 21 20 20 20 20 19 19 19 19 18 18 18 18 18 18 18 18 18 18 18 18 18 18 18 18 18
23 22 22 23 24 25 25 25 24 26 25 24 24 24 24 24 24 24 24 23 22 22 21 21 21 20 20 20 20 19 19 18 18 18 18 18 18 18 18 18 18 18 17 17 17 18 18 18 18
22 21 22 22 23 25 25 24 24 25 23 22 22 22 23 24 24 24 24 24 23 22 22 21 21 20 20 20 19 19 18 18 18 18 18 18 18 18 18 18 18 18 18 18 18 18 17 18 18
19 20 22 22 23 24 24 23 23 23 22 21 21 22 22 23 23 24 24 24 23 23 22 21 21 21 20 19 19 19 18 18 18 18 17 17 17 18 18 18 18 18 18 18 18 18 17 18 18
21 21 21 21 22 23 23 22 21 22 21 21 21 21 21 22 23 23 22 22 22 22 22 21 21 20 20 19 19 18 18 18 17 17 17 17 17 18 18 18 18 18 18 18 18 17 17 17 17
21 21 20 21 22 22 22 20 19 20 21 20 20 20 20 21 21 21 21 21 21 21 21 21 21 20 20 19 18 18 18 18 17 17 17 17 18 18 18 18 18 18 18 17 17 17 16 16 17
21 21 21 21 22 22 21 20 19 19 19 19 19 19 20 20 21 21 21 21 21 21 21 21 20 20 19 19 19 18 18 17 17 17 17 18 18 18 18 18 18 18 17 17 17 16 16 16 16
21 21 21 21 21 21 21 20 18 18 18 18 18 18 19 19 20 20 20 20 21 20 20 20 20 20 19 19 18 18 18 18 17 17 18 18 18 18 18 18 18 17 17 17 17 16 16 16 15
21 22 22 22 20 19 20 19 19 15 16 17 16 16 16 17 18 18 19 19 19 20 20 20 20 19 19 18 18 18 18 18 18 17 17 17 17 17 17 17 17 17 17 16 16 16 15 15 15
22 21 21 21 20 19 18 18 17 16 16 16 16 16 16 16 16 17 17 18 18 19 19 20 19 19 18 17 17 17 17 17 17 17 16 17 17 17 17 17 17 17 16 16 15 15 15 14 14
21 19 17 15 16 17 18 17 16 15 16 16 16 16 16 16 16 17 17 17 17 18 18 19 18 18 18 17 16 16 16 16 16 16 16 16 16 16 17 16 16 16 15 15 15 15 14 14 14
18 17 16 16 15 16 17 16 15 16 16 15 15 16 16 17 17 17 17 17 17 16 17 17 17 17 17 17 16 16 15 15 15 15 15 16 16 16 16 16 15 15 15 15 15 14 14 14 14
19 17 16 16 15 15 16 15 15 16 15 15 15 15 16 16 17 17 17 16 16 16 16 16 16 16 16 16 15 15 14 15 15 15 15 16 16 16 15 15 15 14 14 14 14 14 14 14 14
18 16 15 14 14 14 14 14 15 15 14 14 14 15 15 16 17 17 16 16 15 15 15 15 15 15 15 15 15 14 14 14 14 14 15 15 15 15 15 14 14 14 14 14 14 14 14 14 13
16 14 12 13 15 14 14 14 14 15 14 14 13 15 16 17 17 16 16 15 15 14 14 14 14 14 14 14 14 14 13 14 14 14 14 14 14 14 14 14 14 13 13 13 13 14 14 13 13
16 14 12 11 12 13 13 13 13 14 14 13 14 16 17 17 17 16 16 15 14 14 14 14 14 14 14 14 14 13 13 13 13 14 14 14 14 14 13 13 13 13 13 13 13 13 13 13 13
16 14 12 14 13 11 11 12 14 13 12 13 14 16 16 16 16 15 15 14 14 14 14 14 14 13 13 13 13 13 13 13 13 13 14 14 13 13 13 13 13 13 12 12 12 12 12 12 12

GEFSSGP_850_meantemp_018.txt.gz
Temperature
23 22 21 22 27 31 31 31 31 30 31 29 29 29 29 29 29 27 22 22 21 21 22 22 21 20 20 20 20 20 20 19 19 19 19 19 19 19 19 19 19 19 19 19 19 19 19 19 19
23 22 22 26 31 32 31 30 31 30 29 28 28 28 28 28 25 23 22 21 21 21 22 22 21 20 20 20 20 20 20 20 20 20 19 19 19 19 19 19 19 19 19 19 19 19 19 19 19
23 22 26 31 32 31 31 31 30 29 28 28 28 28 27 27 23 22 22 21 21 21 21 22 21 21 20 20 20 20 20 20 20 20 20 19 19 19 19 19 19 19 19 19 19 19 19 19 19
23 25 29 32 32 31 31 31 31 30 29 28 28 28 27 23 22 22 21 21 20 20 20 21 21 21 20 20 20 20 20 20 20 20 19 19 19 19 19 19 19 19 19 19 19 19 19 19 19
24 29 32 32 32 31 31 31 30 31 30 29 28 29 27 22 21 21 21 21 21 20 20 21 21 21 20 20 20 20 20 20 20 19 19 19 19 19 19 19 19 19 19 19 19 18 18 18 18
28 31 32 32 31 31 31 30 30 31 30 28 28 28 26 22 21 21 21 21 21 20 20 19 21 21 20 20 20 20 20 20 20 19 19 19 19 19 19 19 19 19 19 18 18 18 18 18 18
29 31 32 32 31 31 31 30 31 31 30 30 28 29 26 22 22 21 21 21 21 21 20 19 20 21 20 20 20 20 20 20 19 19 19 19 19 19 19 19 19 19 19 19 18 18 18 18 18
28 31 32 32 31 31 31 30 30 30 30 28 27 29 27 23 22 21 21 21 21 20 19 19 19 19 20 20 20 20 20 20 19 19 19 19 19 19 19 19 19 19 18 18 18 18 18 18 18
27 30 32 32 31 31 31 31 31 29 29 27 27 28 27 24 22 21 21 20 20 19 19 19 19 18 18 18 19 20 20 19 19 19 19 19 18 18 18 18 18 19 18 18 18 18 18 18 18
29 31 32 31 31 31 31 31 31 30 30 29 28 26 24 23 22 21 21 21 20 19 19 19 18 18 18 18 18 18 18 19 19 18 18 18 18 18 18 18 19 19 19 19 18 18 18 18 18
29 30 30 30 30 30 30 31 31 31 32 31 30 28 24 23 22 21 21 21 20 19 19 19 19 19 18 18 18 18 18 18 18 18 18 18 18 18 18 18 18 18 18 18 18 18 18 18 18
28 29 28 29 29 29 30 30 31 31 31 30 29 28 25 23 23 22 21 21 20 20 19 19 19 20 19 19 18 18 18 18 18 18 18 18 18 18 18 18 18 18 18 18 18 18 18 17 17
28 29 28 28 29 29 29 30 30 31 31 29 28 26 25 25 24 23 22 21 21 20 20 19 19 20 20 19 19 18 19 19 18 18 18 18 18 18 18 18 18 18 18 18 18 18 18 18 17
28 28 28 29 29 29 29 31 31 31 29 28 27 27 26 25 24 23 22 21 21 20 20 19 19 20 20 20 20 19 19 19 19 18 18 18 18 18 18 18 18 18 18 18 18 18 18 18 18
27 28 30 30 29 29 30 31 31 30 28 28 28 27 26 25 24 23 22 21 21 21 20 19 20 20 20 20 19 18 18 19 18 18 18 18 18 18 18 18 18 18 18 18 18 18 18 18 18
28 28 29 30 30 29 29 30 31 29 29 29 28 27 26 24 23 23 22 21 21 21 20 19 19 19 20 20 19 18 18 19 18 18 18 18 18 18 18 18 18 18 18 18 18 18 18 18 18
28 29 29 29 30 30 30 30 30 28 29 28 27 26 25 24 23 22 22 21 21 20 20 19 19 19 20 20 20 19 18 18 18 18 18 18 18 18 18 18 18 18 18 18 18 18 18 18 18
28 28 28 28 29 29 29 29 29 27 27 27 26 26 24 24 23 22 21 21 21 20 20 20 20 20 20 19 19 19 19 18 18 18 18 18 18 18 18 18 18 18 18 18 18 18 18 18 18
27 27 27 28 28 28 28 28 28 27 27 26 26 25 24 23 22 21 21 21 21 20 20 20 21 21 21 20 19 19 19 19 18 18 18 18 18 18 18 18 18 18 18 17 17 17 17 17 17
26 27 27 27 28 27 27 27 27 25 25 24 23 23 22 22 21 21 20 20 20 20 20 19 20 20 20 20 20 19 19 18 18 18 18 18 18 18 17 17 17 17 17 17 17 17 17 17 17
27 27 26 26 27 28 27 27 27 26 24 23 22 21 21 20 20 20 19 19 19 19 19 19 19 19 19 19 19 18 18 18 18 18 18 18 18 18 17 16 16 16 17 16 17 17 17 16 16
26 27 26 26 26 27 27 26 28 27 26 25 23 22 22 21 20 19 19 18 18 18 18 18 18 18 18 19 18 18 18 18 18 18 18 18 18 17 16 16 16 16 16 16 16 16 16 16 16
26 26 26 26 26 26 27 26 28 27 26 26 24 23 22 21 20 19 18 18 17 17 17 17 17 18 18 18 18 17 17 17 17 17 17 17 17 16 15 15 15 15 15 16 16 16 16 16 15
26 26 26 26 26 25 26 26 26 27 26 25 24 23 22 21 20 19 18 18 17 17 17 17 17 17 17 17 17 17 17 17 17 17 16 16 16 15 15 15 15 15 15 15 15 15 15 15 15
26 25 25 25 25 26 25 24 26 25 25 24 24 23 22 21 21 20 19 18 17 17 17 16 16 16 16 16 16 16 16 16 16 16 15 15 15 15 15 15 15 14 15 15 15 15 15 15 15
25 25 24 23 24 25 25 25 26 24 24 23 22 22 22 21 21 20 19 19 18 17 16 16 16 16 16 15 15 15 15 15 15 15 15 15 15 15 14 14 14 14 14 14 14 14 14 14 15
25 25 25 23 24 23 25 25 25 24 24 23 23 22 22 21 20 20 19 18 18 17 16 16 15 15 15 15 15 15 15 15 14 14 14 14 14 14 14 14 14 14 14 14 14 14 14 14 14
25 25 24 23 22 23 24 25 25 24 24 24 24 23 22 21 20 19 18 17 16 16 15 15 14 14 14 14 14 14 14 14 13 13 13 13 13 13 13 13 13 13 13 13 13 13 13 14 14
24 24 23 24 23 22 23 24 25 24 24 24 23 23 22 21 20 19 18 17 16 15 15 14 14 14 14 14 14 13 13 13 12 12 12 12 12 13 13 13 13 13 12 12 13 13 13 13 13
24 24 23 22 22 22 22 23 26 24 24 23 22 22 21 20 19 18 17 16 15 15 14 14 13 13 13 13 13 12 12 12 12 11 11 11 12 12 12 12 12 12 12 12 12 12 12 12 12

GEFSSGP_850_meantemp_024.txt.gz
Temperature
25 24 23 24 28 28 30 33 34 34 34 34 33 33 33 31 29 26 26 25 24 23 24 22 22 21 20 20 20 20 20 19 19 19 19 19 19 19 19 19 19 19 19 19 19 19 20 20 20
25 24 25 28 29 27 30 33 33 33 33 33 33 33 33 30 29 27 26 25 23 24 24 23 22 21 21 20 20 20 20 20 19 19 19 19 19 19 19 19 19 19 19 19 19 19 19 19 20
25 25 27 31 29 28 31 33 34 34 33 33 33 32 31 29 28 27 26 25 23 23 23 23 22 22 21 20 20 20 20 20 20 20 19 19 19 19 19 19 19 19 19 19 19 19 19 19 19
25 28 29 31 32 32 34 34 35 34 34 33 33 32 29 27 28 27 25 24 23 22 23 23 22 22 21 21 20 20 20 20 20 20 20 19 19 19 19 19 19 19 19 19 19 19 19 19 19
28 30 32 32 33 34 35 35 35 34 34 33 33 32 28 27 27 26 25 24 23 22 22 23 23 22 22 21 21 20 20 20 20 20 20 19 19 19 19 19 19 19 19 19 19 19 19 19 19
29 32 33 32 33 34 35 35 35 35 34 34 34 32 27 27 26 25 25 25 24 23 22 23 23 22 22 21 21 20 20 20 20 20 20 20 19 19 19 19 19 19 19 19 19 19 19 19 19
31 32 32 33 33 34 35 35 35 34 34 33 33 32 28 27 26 26 25 25 25 23 22 23 23 22 22 21 21 20 20 20 20 20 20 20 20 20 20 19 19 19 19 19 19 19 19 19 19
31 32 33 34 34 34 35 35 35 34 33 33 33 32 28 27 26 26 25 25 25 23 22 22 23 22 22 21 21 21 20 20 20 20 20 20 20 20 20 20 19 19 19 19 19 19 19 19 19
31 31 32 34 34 35 35 35 35 34 33 32 32 31 29 27 26 26 25 25 25 23 22 21 21 22 22 22 21 21 21 21 20 20 20 20 20 19 19 19 19 19 19 19 19 19 19 19 19
32 32 33 35 35 35 35 35 35 35 34 33 32 30 29 27 27 26 25 25 24 23 22 21 21 21 21 21 20 21 21 21 21 20 20 20 19 19 18 19 19 19 19 19 19 19 19 19 19
33 33 34 35 35 35 35 35 35 35 34 33 32 29 29 28 27 26 25 25 24 23 22 21 21 20 20 20 20 20 20 20 20 20 19 19 19 19 19 19 19 19 19 19 19 19 19 19 19
33 33 34 34 34 34 34 34 34 35 34 33 32 31 30 28 27 26 25 25 24 23 22 21 21 20 20 21 21 20 20 20 20 20 19 19 19 19 19 19 19 19 19 19 19 19 19 19 18
32 33 33 33 33 33 33 34 34 34 34 33 32 31 30 29 28 27 26 25 24 23 22 22 21 20 20 21 21 21 21 21 20 20 20 20 19 19 20 20 20 19 19 19 19 19 19 19 19
32 33 33 33 33 33 33 34 34 34 34 33 32 32 31 30 29 28 26 25 24 23 22 22 21 20 20 21 21 21 21 21 21 21 20 20 20 19 19 20 19 19 19 19 19 19 19 19 19
31 31 32 33 33 34 34 33 34 34 34 33 32 32 32 30 29 28 27 26 25 24 23 22 21 20 20 20 20 20 20 20 21 21 21 20 20 19 19 19 19 19 19 19 19 19 19 19 19
32 31 31 33 34 34 33 32 34 34 34 33 32 32 31 30 29 28 27 26 25 25 24 22 22 21 20 20 20 20 20 20 21 21 21 20 20 20 19 19 19 19 19 19 19 19 19 19 19
31 31 32 34 34 34 33 32 33 33 33 32 32 31 31 29 28 28 27 26 25 24 24 23 22 21 20 20 20 21 20 20 21 21 21 21 20 19 19 19 19 19 19 19 19 19 19 19 19
31 32 33 33 34 33 32 32 33 33 32 32 31 31 30 29 28 27 26 26 25 24 23 22 22 21 21 20 20 20 20 20 20 20 20 20 20 20 19 19 19 19 19 19 19 19 19 19 19
30 30 31 32 33 32 31 31 32 33 32 31 30 29 28 27 26 25 24 24 24 23 23 22 21 21 20 20 20 20 20 20 20 20 20 20 20 20 19 19 19 19 19 19 19 19 19 19 18
30 30 30 31 32 31 30 30 31 32 32 31 29 28 27 26 25 24 23 23 22 22 22 21 20 20 20 20 20 19 19 19 19 19 19 20 20 19 19 19 19 19 19 19 18 18 18 18 18
30 30 30 30 30 30 30 29 31 32 31 30 29 27 27 25 24 23 22 21 21 21 21 20 20 19 19 19 19 19 19 19 19 19 19 19 19 19 19 19 18 18 18 18 18 18 18 17 17
29 30 29 29 28 28 29 28 30 31 31 30 28 26 25 25 24 23 22 21 21 20 20 19 19 19 19 19 19 19 18 18 19 19 19 18 18 18 18 18 18 18 18 18 17 17 17 17 17
29 29 29 28 28 27 28 28 29 31 29 27 26 25 25 24 24 23 22 22 21 20 20 19 19 18 18 18 18 18 18 18 18 18 18 18 18 18 18 18 18 18 17 17 17 16 16 16 16
29 29 28 28 28 27 27 26 28 29 28 26 26 25 25 25 24 23 23 22 21 21 20 19 19 18 17 17 17 17 17 18 18 18 17 17 17 17 17 17 17 17 17 16 16 16 16 15 15
28 27 26 26 27 26 26 26 27 29 29 27 26 26 26 25 25 24 23 22 22 21 20 20 19 18 17 16 16 16 17 17 17 17 17 17 16 16 16 16 16 16 16 16 16 15 15 15 15
28 27 25 24 25 26 27 27 29 29 28 27 27 26 26 25 25 24 23 23 22 21 20 20 19 18 17 16 16 16 16 16 16 16 16 16 16 16 16 16 16 15 15 15 15 15 15 15 15
27 27 28 26 26 26 27 29 28 28 28 27 27 26 26 26 25 24 23 23 22 21 20 19 18 17 16 16 15 15 15 15 15 15 15 15 15 15 15 15 15 15 15 15 15 15 15 15 15
28 28 27 26 24 24 26 27 26 26 27 27 27 27 26 25 25 24 23 22 21 20 19 18 17 17 16 15 15 15 15 15 14 14 14 14 14 14 14 14 14 14 14 14 14 14 14 14 15
28 27 27 26 25 24 24 25 28 27 27 27 27 26 26 25 24 23 22 21 20 19 18 18 17 16 15 15 14 14 14 14 13 13 13 13 13 13 13 13 13 13 13 14 14 14 14 14 14
28 27 26 24 24 24 24 25 28 27 27 27 26 25 25 24 24 23 22 21 20 19 18 17 16 15 15 14 14 13 13 13 13 12 12 12 12 12 13 13 13 13 13 13 13 13 13 13 13

GEFSSGP_850_meantemp_030.txt.gz
Temperature
24 24 23 22 20 21 24 27 29 29 29 29 29 28 27 26 25 23 23 23 23 22 22 22 22 22 21 21 20 20 20 20 20 20 20 20 20 20 20 20 20 20 20 20 20 20 20 20 20
25 24 23 22 22 23 25 28 29 30 30 29 29 28 27 25 24 23 22 23 23 23 22 22 22 22 21 21 20 20 20 20 20 20 20 20 20 20 20 20 20 20 20 20 20 20 20 20 20
25 25 24 22 23 23 25 28 29 30 31 30 28 28 27 25 24 24 23 23 23 23 22 22 22 22 21 21 21 20 20 20 20 20 20 20 20 20 20 20 20 20 20 20 20 20 20 20 20
25 25 24 22 24 25 26 27 28 30 30 29 28 26 26 25 25 25 24 23 23 23 23 22 22 22 21 21 21 20 20 20 20 20 20 20 20 20 20 20 20 20 20 20 20 20 20 20 20
25 25 23 22 24 25 26 27 28 29 30 28 27 26 25 26 26 25 24 23 24 23 23 22 22 22 22 21 21 21 21 20 20 20 20 20 20 20 20 20 20 20 20 20 20 20 20 20 20
26 23 23 23 25 26 26 28 28 29 29 28 26 25 24 25 25 24 24 24 24 24 23 22 22 22 22 22 21 21 21 21 21 21 20 20 20 20 20 20 20 20 20 20 20 20 20 20 20
26 23 24 25 25 26 27 29 28 29 29 29 27 25 24 23 25 24 24 24 24 24 23 23 22 22 22 22 21 21 21 21 21 21 20 20 20 20 20 20 20 20 20 20 20 20 20 19 19
27 23 25 25 26 27 29 30 30 30 30 29 28 25 24 24 24 24 23 24 24 24 24 23 23 23 22 22 22 21 21 21 21 21 20 20 20 20 20 20 20 20 20 20 20 19 19 19 19
28 23 23 26 27 28 30 31 31 31 31 30 29 28 27 25 24 23 23 23 23 23 23 23 23 23 23 22 22 22 21 21 21 21 21 20 20 20 20 20 19 19 19 19 19 19 19 19 19
27 23 25 27 29 29 30 31 31 30 28 28 28 28 26 25 24 24 23 23 23 23 23 23 23 23 23 22 22 22 22 21 21 21 21 21 20 20 20 20 19 19 19 19 19 19 19 19 19
26 25 26 28 30 31 30 31 31 29 27 27 27 27 26 25 25 25 24 24 24 23 23 22 22 22 22 22 22 22 21 21 21 21 21 21 20 20 20 20 20 19 19 19 19 19 19 19 19
27 27 29 30 31 31 31 32 31 30 29 29 30 28 26 26 26 25 25 24 24 23 23 22 22 22 22 22 22 21 21 21 21 21 21 20 20 20 20 20 20 19 19 19 19 19 19 19 19
27 27 29 30 30 31 31 31 31 31 31 29 29 28 27 27 26 26 26 25 24 24 23 23 22 22 21 21 21 21 20 20 20 20 20 20 20 20 20 20 19 19 19 19 19 19 19 19 19
28 29 29 30 30 30 30 30 30 31 30 29 28 27 27 27 27 26 25 25 24 24 24 23 23 22 21 21 21 20 20 20 20 20 20 20 20 20 20 20 19 19 19 19 19 19 19 18 18
28 27 26 27 29 29 29 28 29 31 30 28 27 27 27 27 26 26 26 25 25 24 24 23 23 22 21 21 21 20 20 19 19 19 20 20 20 20 20 20 19 19 19 19 19 19 18 18 18
25 25 25 25 27 28 28 27 28 30 30 28 27 26 26 26 26 26 25 25 24 24 23 23 22 22 21 21 21 20 20 20 19 19 19 19 19 20 20 20 20 19 19 19 19 18 18 18 18
23 23 24 25 27 27 26 27 28 29 29 27 27 26 25 25 24 24 24 24 24 23 23 22 22 21 21 21 21 20 20 20 20 20 20 20 19 19 19 19 19 19 19 19 18 18 18 18 18
23 24 25 26 27 27 26 27 27 29 28 27 26 25 24 23 23 23 23 23 23 23 22 22 21 20 20 20 19 19 19 20 20 20 20 20 19 19 19 19 19 19 18 18 18 18 18 18 18
25 26 26 26 27 26 26 26 26 27 27 25 24 23 22 22 23 23 23 23 23 22 22 21 21 20 20 20 19 19 19 19 19 19 19 19 19 19 19 19 18 18 18 19 18 18 18 18 18
26 25 25 25 26 26 26 25 25 24 25 25 23 22 22 22 23 23 23 23 23 22 22 21 21 21 20 19 19 19 19 19 19 19 19 19 19 19 19 18 18 18 18 18 18 18 17 18 17
26 25 25 25 24 24 24 22 22 23 23 23 22 22 22 23 23 23 23 23 23 22 22 22 21 21 20 20 19 19 19 18 18 18 18 18 18 18 18 18 18 18 18 18 18 18 17 17 17
24 26 26 25 23 21 23 21 21 21 21 21 21 21 22 23 23 23 23 23 23 23 22 22 21 21 20 20 19 19 18 18 18 17 17 17 17 18 18 18 18 18 18 18 18 17 17 17 17
26 26 25 24 23 21 21 21 20 21 20 20 20 21 23 23 23 23 24 23 23 23 22 21 21 20 20 19 19 18 18 17 17 17 17 17 17 17 17 17 17 17 17 17 17 17 17 17 16
26 24 22 20 19 20 22 21 20 19 20 20 21 22 23 24 24 24 24 23 23 22 21 21 20 20 19 18 18 17 17 17 16 16 16 17 17 17 17 16 16 16 16 16 16 16 16 16 16
24 20 19 19 18 19 21 21 20 20 21 21 21 23 24 24 24 24 23 23 22 22 21 21 20 19 18 18 17 17 16 16 16 16 16 16 16 16 16 16 16 16 16 16 16 16 16 16 15
25 20 19 19 19 19 20 21 20 22 22 23 24 24 24 24 24 24 23 23 22 21 21 20 20 19 18 17 17 16 16 15 15 15 15 15 15 15 15 15 15 15 15 15 15 15 15 15 15
25 22 20 18 20 19 20 22 22 22 22 22 23 23 24 24 24 23 23 22 22 21 21 20 20 19 18 17 16 16 15 15 15 15 14 14 14 14 14 14 14 14 14 14 14 14 15 14 14
25 23 18 19 19 19 19 20 20 21 21 21 21 23 24 24 23 23 23 22 22 21 21 20 20 19 18 17 16 16 15 15 14 14 14 14 13 13 13 13 14 14 14 14 14 14 14 14 14
24 23 19 17 17 17 18 18 20 20 20 20 21 22 23 23 23 23 22 22 22 21 21 20 19 18 17 16 16 15 15 14 14 13 13 13 13 13 13 13 13 13 13 14 14 14 14 14 13
23 23 19 19 18 17 17 17 19 19 19 19 20 21 21 21 21 22 22 22 21 21 21 20 19 18 17 16 15 15 14 14 13 13 13 12 12 12 12 12 12 12 13 13 13 13 13 13 13

GEFSSGP_850_meantemp_036.txt.gz
Temperature
23 23 21 20 20 21 23 25 26 26 26 26 27 26 25 23 23 23 23 23 23 22 21 21 21 21 21 21 21 20 21 21 21 21 21 20 20 20 20 20 20 20 20 20 20 20 20 20 20
24 23 22 21 21 22 24 25 25 25 26 26 26 26 24 23 23 23 23 23 22 22 21 21 21 21 21 21 21 21 21 21 21 20 20 20 20 20 20 20 20 20 20 20 20 20 20 20 20
24 23 22 20 22 23 25 25 25 26 26 27 26 25 24 24 24 24 24 23 22 22 22 21 21 21 21 21 21 21 21 20 20 20 20 20 20 20 20 20 20 20 20 20 20 20 20 20 20
24 23 23 21 24 24 24 25 25 26 27 27 26 24 24 24 24 24 24 23 22 22 22 21 21 21 21 21 21 20 20 20 20 20 20 20 20 20 20 20 20 20 20 20 20 20 20 19 19
25 24 22 22 23 24 24 25 26 26 26 26 26 24 23 24 24 24 24 23 23 22 22 21 21 21 21 21 21 21 20 20 20 20 20 20 20 20 20 20 20 20 20 20 20 20 19 19 19
25 22 22 23 24 25 25 27 27 27 26 26 25 23 23 24 24 24 24 23 23 22 22 21 21 21 21 21 21 21 21 21 20 20 20 20 20 20 19 19 19 19 19 19 19 19 19 19 19
24 21 23 24 24 25 27 28 27 26 26 26 26 23 23 24 24 24 23 23 22 22 22 22 21 21 21 21 21 21 21 21 20 20 20 20 20 20 20 19 19 19 19 19 19 19 19 19 19
25 21 23 23 24 25 27 28 28 28 27 27 26 24 24 24 24 23 23 23 22 22 22 22 22 21 21 21 21 21 21 21 20 20 20 20 20 20 20 20 19 19 19 19 19 19 19 19 19
25 21 22 24 24 25 27 27 28 28 27 27 26 26 27 25 24 23 23 22 22 22 22 22 22 22 21 21 21 21 21 21 21 20 20 20 20 20 20 20 19 19 19 19 19 19 18 18 18
24 21 24 24 25 26 27 27 28 28 26 26 26 26 26 25 24 23 23 23 22 22 22 22 22 22 22 21 21 21 21 21 21 21 21 20 20 20 20 19 19 19 19 19 19 18 18 18 18
23 23 24 25 27 27 26 28 28 27 26 27 27 27 26 25 24 23 23 23 24 23 23 22 22 22 22 21 21 21 21 21 21 21 21 20 20 20 20 19 19 19 19 19 18 18 18 18 18
24 24 25 26 28 27 27 28 28 27 29 30 29 29 27 25 25 24 24 23 23 23 23 22 22 22 22 21 21 21 21 21 21 21 20 20 20 20 20 20 19 19 19 19 18 18 18 18 18
24 25 26 27 27 27 27 28 28 28 29 29 28 27 27 26 25 24 24 23 23 23 23 22 22 22 21 21 21 21 21 21 21 20 20 20 19 19 19 19 19 19 19 19 19 18 18 18 18
24 24 25 26 26 27 27 27 27 28 28 28 27 27 27 26 25 24 23 23 23 23 22 22 22 22 21 21 21 20 20 20 20 20 20 19 19 19 19 19 19 19 19 19 18 18 18 18 18
24 23 24 25 25 26 27 26 25 26 27 26 26 25 25 25 24 24 24 24 23 23 22 22 21 21 21 21 20 20 20 19 19 19 19 19 19 19 19 19 19 19 19 18 18 18 18 18 18
23 23 23 24 23 25 26 25 24 25 25 24 24 24 24 24 24 24 23 23 23 23 22 22 21 21 21 20 20 20 19 19 19 19 19 19 19 18 18 18 19 19 19 18 18 18 18 18 18
21 22 23 23 23 24 24 24 22 23 24 23 23 23 23 23 23 23 23 23 23 23 22 22 21 21 21 20 20 19 19 19 19 18 18 18 18 18 18 18 18 18 18 18 18 18 18 17 18
23 23 23 23 23 23 22 22 22 22 22 22 22 22 22 22 22 23 23 23 23 23 22 22 22 21 21 20 20 19 19 19 18 18 18 18 18 18 17 18 18 18 18 18 18 18 18 18 18
23 23 23 24 24 23 22 21 21 21 21 20 20 20 21 21 21 22 22 22 23 23 22 22 22 21 21 20 20 20 19 19 19 18 18 18 18 17 17 17 17 17 17 18 18 18 18 18 17
22 23 23 24 23 23 22 21 20 20 20 19 19 19 20 20 21 22 22 23 23 23 23 23 22 21 21 20 20 20 19 19 18 18 17 17 17 17 17 17 17 17 17 17 17 17 17 17 17
23 23 24 24 23 22 23 21 20 19 19 19 19 19 20 21 22 22 23 23 23 23 23 22 22 21 21 20 20 19 19 18 18 17 17 17 16 16 16 16 16 17 17 17 17 17 17 17 17
23 24 24 23 22 20 21 20 20 19 18 18 18 19 20 21 22 23 23 23 23 23 22 22 21 21 20 20 19 19 18 17 17 16 16 16 16 16 16 16 16 16 16 16 16 16 16 16 16
24 22 22 21 21 19 19 19 19 19 19 18 18 19 20 22 22 23 23 23 22 22 22 21 21 20 20 19 19 18 17 17 16 16 16 16 16 16 16 15 15 16 16 16 16 16 16 15 15
23 21 19 17 17 19 20 19 19 18 19 19 19 20 21 22 22 22 22 22 22 21 21 21 21 20 20 19 18 18 17 16 16 16 15 15 15 15 15 15 15 15 15 15 15 15 15 15 15
21 19 18 18 17 18 18 19 18 19 19 19 19 20 21 22 22 22 22 22 21 21 21 21 20 20 19 19 18 17 17 16 15 15 15 15 15 15 15 14 14 14 14 14 14 15 15 15 14
22 19 18 19 18 17 18 19 19 19 19 20 20 20 20 21 21 21 22 22 22 21 21 21 20 20 19 19 18 17 17 16 15 15 14 14 14 14 14 14 14 14 14 14 14 14 14 14 14
21 19 18 16 17 17 17 18 18 18 18 17 17 18 18 19 20 20 21 21 21 21 21 20 20 19 19 18 18 17 16 16 15 15 14 14 14 13 13 13 13 13 13 13 13 13 14 14 14
21 17 15 16 17 17 18 18 16 15 15 15 14 15 15 17 18 19 19 20 20 20 20 19 19 18 18 18 17 17 16 15 15 14 14 14 13 13 13 13 13 13 13 13 13 13 13 13 13
21 19 15 14 15 16 16 16 16 14 13 13 13 13 14 15 16 16 17 17 18 18 18 18 18 17 17 17 16 16 16 15 15 14 14 14 13 13 13 13 13 12 12 13 13 13 13 13 13
20 19 16 17 17 14 14 14 15 13 12 12 12 12 13 13 14 15 16 16 16 16 16 16 16 16 16 16 16 16 15 15 15 14 14 13 13 13 12 12 12 12 12 12 12 12 12 12 12

GEFSSGP_850_meantemp_042.txt.gz
Temperature
23 21 20 21 28 33 32 32 32 32 32 31 30 31 31 31 30 28 23 23 22 22 22 22 21 21 20 20 20 20 20 20 20 20 20 20 20 20 20 20 20 20 20 20 20 20 20 20 20
22 21 21 25 32 32 31 32 32 32 31 30 30 30 30 29 26 24 23 22 22 22 22 22 22 21 21 21 20 20 20 20 20 20 20 20 20 20 20 20 20 20 20 20 20 20 20 20 20
22 21 25 32 33 32 31 32 32 31 30 30 30 29 29 28 25 23 22 22 22 21 21 22 22 21 21 21 21 20 20 20 20 20 20 20 20 20 20 20 20 20 20 20 20 19 19 19 19
22 24 28 32 32 32 32 32 32 32 31 30 30 30 28 24 24 23 22 22 22 21 21 22 22 22 21 21 21 21 20 20 20 20 20 20 20 20 19 19 19 19 19 19 19 19 19 19 19
23 29 32 33 32 32 32 32 31 32 32 31 30 30 28 23 23 23 23 22 22 22 21 22 22 22 21 21 21 21 21 20 20 20 20 20 20 19 19 19 19 19 19 19 19 19 19 18 18
28 32 32 32 32 32 32 31 31 32 31 31 30 30 27 23 23 23 23 22 22 22 21 21 22 22 21 21 21 21 20 20 20 20 20 20 20 19 19 19 19 19 19 19 19 19 18 18 18
30 32 32 32 32 32 32 31 32 32 32 31 31 31 27 24 23 23 22 22 22 22 21 21 21 21 21 21 21 20 20 20 20 20 20 19 19 19 19 19 19 19 19 19 19 19 18 18 18
29 32 32 32 32 32 32 32 32 32 32 30 30 31 29 24 23 22 22 22 22 21 21 20 20 20 20 20 20 20 20 20 20 20 20 19 19 19 19 19 19 19 19 19 19 19 19 18 18
28 32 32 33 32 33 32 32 32 31 31 30 29 29 28 25 23 22 22 21 21 21 20 20 20 20 19 19 19 20 20 20 20 19 19 20 19 18 18 19 19 19 19 19 19 19 19 19 18
30 32 33 32 33 33 32 32 32 32 32 30 28 26 25 24 24 23 22 22 21 21 20 20 20 20 19 19 19 19 19 19 19 18 18 18 18 18 18 18 19 19 19 19 19 19 19 19 18
31 31 32 32 31 31 32 33 32 33 33 32 30 27 25 24 24 23 23 22 22 21 21 21 20 20 20 19 19 19 19 18 18 18 18 18 18 18 18 18 19 19 19 19 18 18 18 18 18
30 31 30 31 31 31 32 32 32 33 33 31 30 28 26 25 25 24 23 22 22 22 21 21 21 21 21 20 19 19 19 19 19 18 18 18 18 18 18 18 18 18 18 18 18 18 18 18 18
29 30 30 30 30 30 31 32 32 32 30 29 28 27 26 26 25 24 23 23 22 22 22 21 22 21 22 21 21 20 19 19 19 18 18 18 18 18 18 18 18 18 18 18 18 18 18 18 18
29 29 30 30 30 30 31 32 32 31 29 28 28 27 26 26 25 24 23 23 22 22 22 22 22 22 22 22 21 20 19 19 19 18 18 18 18 18 18 18 18 18 18 18 18 18 18 18 18
28 29 31 31 31 31 31 32 32 29 29 29 28 27 26 25 25 24 24 23 23 22 22 22 22 22 22 21 21 20 19 19 19 18 18 18 18 18 18 18 18 18 18 18 18 18 18 18 18
30 30 30 32 31 30 31 31 31 28 29 29 28 27 26 24 24 24 23 23 23 22 22 22 22 21 21 21 21 20 19 19 18 18 18 18 18 18 18 18 18 18 18 18 18 18 18 18 18
29 30 30 31 31 31 31 31 30 28 29 28 27 26 26 24 24 23 23 23 23 22 22 22 21 21 21 20 20 19 19 19 18 18 18 18 18 17 17 17 17 17 17 17 17 17 18 18 18
29 30 30 30 30 30 30 30 29 28 28 28 27 27 25 25 24 23 23 23 22 22 22 22 22 21 21 20 20 20 19 19 18 18 17 17 17 17 17 17 17 17 17 17 17 17 17 17 17
29 29 29 29 29 29 29 29 29 28 28 27 27 26 26 24 23 22 22 22 22 22 22 22 22 21 21 20 20 19 19 18 18 18 17 17 17 16 16 16 16 16 16 16 17 17 17 17 17
28 28 29 29 29 29 29 29 29 28 27 26 26 25 25 24 22 22 22 22 22 22 22 22 22 22 21 21 20 20 19 18 18 17 17 17 16 16 16 16 16 16 16 16 16 16 16 16 16
28 29 28 28 29 29 29 28 28 28 26 25 25 24 24 23 23 22 21 21 21 21 22 22 22 22 21 21 20 19 19 18 18 17 17 16 16 16 16 16 16 16 15 16 16 16 15 16 16
28 29 28 28 28 28 28 28 28 28 28 27 25 24 24 23 23 22 22 21 21 21 21 21 21 21 21 20 20 19 19 18 18 17 17 16 16 16 15 15 15 15 15 15 15 15 15 15 15
28 28 28 28 27 28 28 27 29 28 27 27 26 24 23 23 22 22 21 21 20 20 21 21 20 20 20 20 19 19 18 18 17 17 16 16 15 15 15 15 15 15 15 14 15 15 14 14 15
28 27 27 27 28 27 27 27 27 27 25 25 25 23 22 22 21 21 20 20 20 20 20 20 20 19 19 19 19 19 18 18 17 17 16 16 15 15 14 14 14 14 14 14 14 14 14 14 14
28 27 26 26 26 26 27 26 26 24 23 23 23 22 21 20 20 19 19 19 19 19 19 19 19 19 18 18 18 18 18 17 17 16 16 16 15 15 14 14 14 14 14 14 14 14 14 14 14
28 27 25 25 25 26 27 26 25 23 21 20 19 19 19 18 18 17 17 17 17 18 18 18 18 18 17 17 17 17 17 16 16 16 16 15 15 15 15 14 14 14 14 14 13 13 13 13 13
27 27 27 26 26 25 26 26 23 22 21 20 18 18 17 16 15 15 15 15 15 15 16 16 16 16 16 16 16 16 16 16 16 16 16 15 15 15 14 14 14 13 13 13 14 13 13 13 13
27 27 26 26 24 24 26 26 25 22 20 19 18 17 16 15 15 14 13 13 13 13 13 14 14 14 14 15 15 15 15 15 15 15 15 15 15 14 14 14 13 13 13 13 13 13 13 13 13
26 26 26 26 25 24 24 25 21 20 19 18 17 16 15 15 14 14 13 13 13 13 13 12 12 13 13 14 14 14 14 14 14 14 14 14 14 14 14 14 13 13 13 13 13 13 13 13 13
26 26 25 24 24 24 24 23 19 18 18 17 16 15 14 14 14 13 13 12 12 12 12 12 12 12 12 12 13 13 13 13 13 13 13 14 14 14 13 13 13 12 12 12 12 12 12 12 13